User: anonymous   Login
Location: Ayer Observatory
(42.2600°N, 71.0700°W)
Time: 22:28:41
(UTC-04:00)
Language:

XW-2B - Orbit

View from above orbital plane
View from above orbital plane
View from above satellite
View from above satellite

Ground track
Ground track

The orbit data is extracted from the following two-line orbital elements,

1 40911U 15049N   19229.15105942  .00000227  00000-0  15337-4 0  9998
2 40911  97.4687 230.5857 0014000 357.9315  65.0973 15.15836842215917
Epoch (UTC): 17 August 2019 03:37:31
Eccentricity: 0.0014000
inclination: 97.4687°
perigee height: 509 km
apogee height: 528 km
right ascension of ascending node: 230.5857°
argument of perigee: 357.9315°
revolutions per day: 15.15836842
mean anomaly at epoch: 65.0973°
orbit number at epoch: 21591

The dashed part of the orbit path shows where the satellite is in the earth's shadow,  

DLR